Location: Buch
(49.7331°N, 12.1098°E)
Time: 01:20:35
(UTC+00:00)

Cosmos 1300 Rocket - Pass Details

Date: 12 May 2021
Orbit: 601 x 627 km, 82.5° (Epoch: 23 June)

Event Time Altitude Azimuth Distance (km) Brightness Sun altitude
Rises 23:30:05 0° 348° (NNW) 2,914 8.3 -21.7°
Reaches altitude 10° 23:32:20 10° 347° (NNW) 1,999 7.2 -21.7°
Maximum altitude 23:36:45 73° 263° (W) 648 3.5 -21.6°
Enters shadow 23:37:19 63° 209° (SSW) 691 3.4 -21.6°
